< < Back
Terminal Aerodrome Forecast


Current Version              Previous Versions:   1  2  3  4  5  6  7  8  9  

Terminal Aerodrome Forecast

140
FTUS44 KMRX 292326
TAFTYS
TAF
KTYS 292326Z 3000/3024 VRB03KT P6SM VCSH SCT050 BKN150
     FM300400 00000KT P6SM BKN150
     FM301300 05005KT P6SM SCT050 BKN150
     FM301800 06005KT P6SM VCSH BKN050=

Latest METAR

651
SAUS80 KWBC 310000 RRB
MTRTYS
METAR KTYS 302353Z 00000KT 10SM SCT080 OVC250 22/20 A3006 RMK AO2 SLP166
6//// T02170200 10217 20206 56013 PNO $


USA.gov is the U.S. government's official web portal to all federal, state and local government web resources and services.